Terminal Aerodrome Forecast
Issued by NWS

Home | Current Version | Previous Version | Graphics & Text | Print | Product List | Glossary On
Versions: 1 2 3 4 5 6 7 8 9 10 11 12 13 14 15 16 17 18 19 20 21
397
FTUS43 KABR 161010 AAA
TAFATY
TAF AMD
KATY 161010Z 1610/1706 VRB03KT 5SM BR BKN200
     FM162100 34004KT P6SM SCT200=

USA.gov is the U.S. government's official web portal to all federal, state and local government web resources and services.